Location: Feydey
(46.3431°N, 7.0106°E)
Time: 19:23:05
(UTC+00:00)

Cosmos 1328 - Pass Details

Date: 22 October 2021
Orbit: 529 x 552 km, 82.5° (Epoch: 03 December)

Event Time Altitude Azimuth Distance (km) Brightness Sun altitude
Rises 19:09:58 0° 329° (NNW) 2,735 8.0 -27.7°
Reaches altitude 10° 19:13:49 10° 291° (WNW) 1,835 7.4 -28.3°
Maximum altitude 19:14:46 11° 277° (W) 1,788 7.3 -28.5°
Drops below altitude 10° 19:15:43 10° 264° (W) 1,832 7.3 -28.6°
Sets 19:19:34 0° 226° (SW) 2,719 7.8 -29.3°
